カタログに戻る

STARLINK-4052

運用中通信VLEO
NORAD 53171·PAYLOAD·🇺🇸 United States

打ち上げ Jul 17, 2022 から Cape Canaveral Space Force Station

Loading…

次のパス (今後24時間)

TLE

最新Source: CelesTrak SupGP

元期: Sep 14, 2026, 20:35 UTC

1 53171C 22083AR  26257.85812500 -.00019565  00000+0 -55995-3 0  2573
2 53171  53.1597 352.6114 0001345  69.3529 309.6323 15.35398086    13

AllMySatでSTARLINK-4052をリアルタイム追跡

Download on the App Store